• în Republica Moldova
  • Lista ţărilor
  • Pe 7 zile
  • Temperatura apei
  • Hartă satelitară
  • Meteo pe hartă
  • Widget-uri
  • user-avatar
    Intrare

    Meteo pe oră la Malanje

    Astăzi, 23 Aprilie, Duminică

    Timp Temperatura Precipitaţii Vânt Presiune Umiditate
    00:00 +20°C° 0 mm 1 m/s 665 mmHg 97%
    01:00 +20°C° 0 mm 1 m/s 664 mmHg 97%
    02:00 +19°C° 0 mm 1 m/s 664 mmHg 97%
    03:00 +19°C° 0 mm 1 m/s 664 mmHg 97%
    04:00 +19°C° 0 mm 1 m/s 664 mmHg 98%
    05:00 +19°C° 0,1 mm 1 m/s 665 mmHg 97%
    06:00 +20°C° 0,1 mm 1 m/s 665 mmHg 96%
    07:00 +21°C° 0,1 mm 1 m/s 666 mmHg 95%
    08:00 +23°C° 0,3 mm 1 m/s 666 mmHg 87%
    09:00 +25°C° 0,3 mm 1 m/s 667 mmHg 80%
    10:00 +27°C° 0,3 mm 1 m/s 667 mmHg 73%
    11:00 +28°C° 0,4 mm 1 m/s 667 mmHg 69%
    12:00 +27°C° 0,4 mm 0 m/s 666 mmHg 65%
    13:00 +28°C° 0,4 mm 0 m/s 666 mmHg 62%
    14:00 +29°C° 0,5 mm 1 m/s 665 mmHg 65%
    15:00 +28°C° 0,5 mm 1 m/s 665 mmHg 69%
    16:00 +27°C° 0,5 mm 2 m/s 664 mmHg 73%
    17:00 +25°C° 0,9 mm 2 m/s 664 mmHg 80%
    18:00 +24°C° 0,9 mm 2 m/s 664 mmHg 86%
    19:00 +21°C° 0,9 mm 3 m/s 664 mmHg 92%
    20:00 +20°C° 0,5 mm 2 m/s 665 mmHg 93%
    21:00 +20°C° 0,5 mm 2 m/s 665 mmHg 94%
    22:00 +20°C° 0,5 mm 2 m/s 666 mmHg 95%
    23:00 +19°C° 0 mm 2 m/s 666 mmHg 96%

    Mâine, 24 Aprilie, Luni

    Timp Temperatura Precipitaţii Vânt Presiune Umiditate
    00:00 +19°C° 0 mm 2 m/s 665 mmHg 96%
    01:00 +19°C° 0 mm 2 m/s 665 mmHg 96%
    02:00 +18°C° 0,2 mm 2 m/s 665 mmHg 96%
    03:00 +18°C° 0,2 mm 2 m/s 665 mmHg 97%
    04:00 +18°C° 0,2 mm 2 m/s 665 mmHg 97%
    05:00 +19°C° 0 mm 1 m/s 665 mmHg 96%
    06:00 +19°C° 0 mm 1 m/s 665 mmHg 94%
    07:00 +20°C° 0 mm 1 m/s 666 mmHg 93%
    08:00 +21°C° 0 mm 1 m/s 666 mmHg 83%
    09:00 +23°C° 0 mm 1 m/s 667 mmHg 74%
    10:00 +25°C° 0 mm 1 m/s 668 mmHg 64%
    11:00 +25°C° 0 mm 1 m/s 667 mmHg 60%
    12:00 +26°C° 0 mm 2 m/s 667 mmHg 55%
    13:00 +27°C° 0 mm 2 m/s 667 mmHg 50%
    14:00 +27°C° 0 mm 2 m/s 666 mmHg 54%
    15:00 +26°C° 0 mm 2 m/s 666 mmHg 59%
    16:00 +26°C° 0 mm 2 m/s 665 mmHg 63%
    17:00 +24°C° 0 mm 2 m/s 665 mmHg 64%
    18:00 +21°C° 0 mm 2 m/s 665 mmHg 66%
    19:00 +20°C° 0 mm 2 m/s 665 mmHg 68%
    20:00 +19°C° 0 mm 2 m/s 665 mmHg 68%
    21:00 +18°C° 0 mm 2 m/s 665 mmHg 68%
    22:00 +19°C° 0 mm 1 m/s 666 mmHg 68%
    23:00 +18°C° 0 mm 2 m/s 665 mmHg 67%

    Poimâine, 25 Aprilie, Marţi

    Timp Temperatura Precipitaţii Vânt Presiune Umiditate
    00:00 +17°C° 0 mm 2 m/s 665 mmHg 65%
    01:00 +17°C° 0 mm 2 m/s 665 mmHg 64%
    02:00 +17°C° 0 mm 2 m/s 665 mmHg 64%
    03:00 +17°C° 0 mm 2 m/s 664 mmHg 65%
    04:00 +16°C° 0 mm 2 m/s 664 mmHg 65%
    05:00 +18°C° 0 mm 1 m/s 665 mmHg 66%
    06:00 +18°C° 0 mm 1 m/s 665 mmHg 68%
    07:00 +19°C° 0 mm 1 m/s 665 mmHg 69%
    08:00 +21°C° 0 mm 1 m/s 666 mmHg 61%
    09:00 +24°C° 0 mm 1 m/s 667 mmHg 53%
    10:00 +26°C° 0 mm 1 m/s 668 mmHg 45%
    11:00 +27°C° 0 mm 1 m/s 667 mmHg 43%
    12:00 +27°C° 0 mm 0 m/s 667 mmHg 41%
    13:00 +28°C° 0 mm 0 m/s 667 mmHg 39%
    14:00 +27°C° 0 mm 0 m/s 666 mmHg 42%
    15:00 +29°C° 0 mm 1 m/s 665 mmHg 45%
    16:00 +29°C° 0 mm 1 m/s 665 mmHg 48%
    17:00 +26°C° 0 mm 1 m/s 664 mmHg 52%
    18:00 +23°C° 0 mm 2 m/s 664 mmHg 55%
    19:00 +19°C° 0 mm 2 m/s 664 mmHg 59%
    20:00 +19°C° 0 mm 2 m/s 665 mmHg 57%
    21:00 +18°C° 0 mm 2 m/s 665 mmHg 56%
    22:00 +18°C° 0 mm 2 m/s 665 mmHg 54%
    23:00 +18°C° 0 mm 1 m/s 665 mmHg 54%

    26 Aprilie, Miercuri

    Timp Temperatura Precipitaţii Vânt Presiune Umiditate
    00:00 +18°C° 0 mm 1 m/s 665 mmHg 54%
    01:00 +16°C° 0 mm 1 m/s 664 mmHg 54%
    02:00 +16°C° 0 mm 1 m/s 664 mmHg 55%
    03:00 +15°C° 0 mm 1 m/s 664 mmHg 55%
    04:00 +15°C° 0 mm 1 m/s 663 mmHg 56%
    05:00 +16°C° 0 mm 1 m/s 664 mmHg 58%
    06:00 +19°C° 0 mm 1 m/s 665 mmHg 61%
    07:00 +20°C° 0 mm 1 m/s 666 mmHg 63%
    08:00 +22°C° 0 mm 1 m/s 667 mmHg 58%
    09:00 +24°C° 0 mm 1 m/s 667 mmHg 52%
    10:00 +26°C° 0 mm 2 m/s 668 mmHg 47%
    11:00 +27°C° 0 mm 2 m/s 667 mmHg 48%
    12:00 +28°C° 0 mm 2 m/s 667 mmHg 49%
    13:00 +29°C° 0 mm 2 m/s 666 mmHg 50%
    14:00 +29°C° 0 mm 2 m/s 666 mmHg 52%
    15:00 +29°C° 0 mm 1 m/s 665 mmHg 53%
    16:00 +29°C° 0 mm 1 m/s 665 mmHg 55%
    17:00 +26°C° 0 mm 1 m/s 665 mmHg 64%
    18:00 +23°C° 0 mm 1 m/s 664 mmHg 73%
    19:00 +20°C° 0 mm 1 m/s 664 mmHg 82%
    20:00 +20°C° 0 mm 1 m/s 664 mmHg 83%
    21:00 +20°C° 0 mm 1 m/s 665 mmHg 85%
    22:00 +20°C° 0 mm 1 m/s 665 mmHg 86%
    23:00 +17°C° 0 mm 0 m/s 664 mmHg 87%

    27 Aprilie, Joi

    Timp Temperatura Precipitaţii Vânt Presiune Umiditate
    00:00 +17°C° 0 mm 0 m/s 664 mmHg 89%
    01:00 +16°C° 0 mm 0 m/s 664 mmHg 90%
    02:00 +16°C° 0 mm 0 m/s 664 mmHg 90%
    03:00 +16°C° 0 mm 0 m/s 664 mmHg 90%
    04:00 +16°C° 0 mm 0 m/s 664 mmHg 90%
    05:00 +19°C° 0 mm 1 m/s 665 mmHg 89%
    06:00 +20°C° 0 mm 1 m/s 666 mmHg 87%
    07:00 +20°C° 0 mm 2 m/s 667 mmHg 86%
    08:00 +23°C° 0 mm 2 m/s 667 mmHg 79%
    09:00 +24°C° 0 mm 3 m/s 668 mmHg 73%
    10:00 +26°C° 0 mm 4 m/s 668 mmHg 67%
    11:00 +27°C° 0 mm 4 m/s 667 mmHg 63%
    12:00 +28°C° 0 mm 4 m/s 667 mmHg 59%
    13:00 +29°C° 0 mm 4 m/s 666 mmHg 55%
    14:00 +29°C° 0 mm 4 m/s 666 mmHg 57%
    15:00 +28°C° 0 mm 3 m/s 665 mmHg 58%
    16:00 +28°C° 0 mm 3 m/s 665 mmHg 60%
    17:00 +26°C° 0 mm 3 m/s 665 mmHg 67%
    18:00 +24°C° 0 mm 2 m/s 665 mmHg 74%
    19:00 +21°C° 0 mm 2 m/s 665 mmHg 81%
    20:00 +21°C° 0 mm 2 m/s 665 mmHg 84%
    21:00 +20°C° 0 mm 2 m/s 665 mmHg 87%
    22:00 +20°C° 0 mm 2 m/s 665 mmHg 90%
    23:00 +20°C° 0,1 mm 2 m/s 665 mmHg 90%

    28 Aprilie, Vineri

    Timp Temperatura Precipitaţii Vânt Presiune Umiditate
    00:00 +19°C° 0,1 mm 2 m/s 665 mmHg 90%
    01:00 +19°C° 0,1 mm 2 m/s 665 mmHg 91%
    02:00 +19°C° 0,2 mm 2 m/s 665 mmHg 92%
    03:00 +19°C° 0,2 mm 2 m/s 665 mmHg 93%
    04:00 +18°C° 0,2 mm 2 m/s 665 mmHg 93%
    05:00 +19°C° 0 mm 2 m/s 665 mmHg 92%
    06:00 +19°C° 0 mm 2 m/s 666 mmHg 91%
    07:00 +20°C° 0 mm 2 m/s 667 mmHg 90%
    08:00 +22°C° 0 mm 3 m/s 667 mmHg 82%
    09:00 +25°C° 0 mm 4 m/s 668 mmHg 74%
    10:00 +27°C° 0 mm 4 m/s 668 mmHg 66%
    11:00 +28°C° 0,2 mm 4 m/s 667 mmHg 64%
    12:00 +28°C° 0,2 mm 4 m/s 667 mmHg 61%
    13:00 +29°C° 0,2 mm 4 m/s 666 mmHg 59%
    14:00 +29°C° 0,1 mm 3 m/s 666 mmHg 61%
    15:00 +28°C° 0,1 mm 3 m/s 665 mmHg 63%
    16:00 +28°C° 0,1 mm 2 m/s 665 mmHg 66%
    17:00 +26°C° 0,1 mm 2 m/s 665 mmHg 71%
    18:00 +24°C° 0,1 mm 2 m/s 665 mmHg 77%
    19:00 +23°C° 0,1 mm 2 m/s 665 mmHg 82%
    20:00 +21°C° 0,6 mm 2 m/s 666 mmHg 84%
    21:00 +21°C° 0,6 mm 2 m/s 666 mmHg 86%
    22:00 +20°C° 0,6 mm 2 m/s 666 mmHg 88%
    23:00 +20°C° 0,7 mm 2 m/s 666 mmHg 90%
    Arată mai mult